Weather History for KSLK - May, 2015

Change the Weather History Date:

Monday, May 25, 2015

  Actual Average Record
Temperature  
Mean Temperature 63 °F 53 °F  
Max Temperature 78 °F 67 °F - ()
Min Temperature 48 °F 40 °F - ()
Degree Days  
Heating Degree Days 2 12  
Month to date heating degree days 283 398  
Since 1 July heating degree days 9287 9169  
Cooling Degree Days 0 0  
Month to date cooling degree days 5 0  
Year to date cooling degree days 5 0  
Growing Degree Days 12 (Base 50)    
Moisture  
Dew Point 50 °F    
Average Humidity 59    
Maximum Humidity 77    
Minimum Humidity 41    
Precipitation  
Precipitation 0.16 in 0.12 in - ()
Month to date precipitation 1.64 2.69  
Year to date precipitation 5.84 11.60  
Sea Level Pressure  
Sea Level Pressure 30.13 in    
Wind  
Wind Speed 6 mph (SW)    
Max Wind Speed 18 mph    
Max Gust Speed 23 mph    
Visibility 10 miles    
Events Rain    
T = Trace of Precipitation, MM = Missing Value Source: NWS Daily Summary

Daily Weather History Graph

Daily Weather History Graph

Search for Another Location

Airport or City:

Trip Planner

Search our weather history database for the weather conditions in past years. The results will help you decide how hot, cold, wet, or windy it might be!

Date:

Astronomy

May. 25, 2015 Rise Set
Actual Time 5:20 AM EDT 8:27 PM EDT
Civil Twilight 4:45 AM EDT 9:02 PM EDT
Nautical Twilight 4:00 AM EDT 9:47 PM EDT
Astronomical Twilight 3:06 AM EDT 10:42 PM EDT
Moon 12:35 PM EDT (5/25) 1:18 AM EDT (5/25)
Length of Visible Light 16h 17m
Length of Day
15h 07m
Waxing Crescent, 49% of the Moon is Illuminated
May 25
Waxing Crescent
May 25
First Quarter
Jun 2
Full
Jun 9
Last Quarter
Jun 16
New

Hourly Weather History & Observations

Time (EDT) Temp. Dew Point Humidity Pressure Visibility Wind Dir Wind Speed Gust Speed Precip Events Conditions
12:51 AM 52.0 °F 41.0 °F 66% 30.17 in 10.0 mi Calm Calm - N/A   Clear
1:51 AM 50.0 °F 39.9 °F 68% 30.16 in 10.0 mi SW 3.5 mph - N/A   Clear
2:51 AM 50.0 °F 41.0 °F 71% 30.15 in 10.0 mi Calm Calm - N/A   Clear
3:51 AM 51.1 °F 43.0 °F 74% 30.15 in 10.0 mi SSW 3.5 mph - N/A   Overcast
4:51 AM 54.0 °F 45.0 °F 72% 30.16 in 10.0 mi SW 4.6 mph - N/A   Overcast
6:51 AM 55.0 °F 48.0 °F 77% 30.19 in 10.0 mi SSW 3.5 mph - N/A   Overcast
7:51 AM 59.0 °F 46.9 °F 64% 30.20 in 10.0 mi SW 8.1 mph - N/A   Overcast
8:51 AM 62.1 °F 50.0 °F 65% 30.21 in 10.0 mi SW 6.9 mph - N/A   Overcast
9:51 AM 62.1 °F 51.1 °F 67% 30.20 in 10.0 mi SW 10.4 mph - N/A   Overcast
10:51 AM 61.0 °F 51.1 °F 70% 30.19 in 10.0 mi SW 9.2 mph - 0.00 in   Overcast
11:51 AM 62.1 °F 53.1 °F 72% 30.18 in 10.0 mi SW 8.1 mph - 0.00 in   Overcast
12:51 PM 66.0 °F 52.0 °F 60% 30.15 in 10.0 mi SW 8.1 mph - N/A   Overcast
1:51 PM 66.9 °F 54.0 °F 63% 30.13 in 10.0 mi Variable 6.9 mph - N/A   Overcast
2:51 PM 71.1 °F 51.1 °F 49% 30.09 in 10.0 mi Variable 3.5 mph - N/A   Mostly Cloudy
4:51 PM 75.9 °F 50.0 °F 40% 30.05 in 10.0 mi SW 11.5 mph 21.9 mph N/A   Mostly Cloudy
5:51 PM 73.9 °F 53.1 °F 48% 30.04 in 10.0 mi SW 10.4 mph - N/A   Overcast
9:51 PM 63.0 °F 61.0 °F 93% 30.03 in 9.0 mi Calm Calm - 0.00 in   Overcast
10:51 PM 62.1 °F 61.0 °F 96% 30.03 in 6.0 mi South 4.6 mph - 0.04 in Rain Light Rain
11:51 PM 62.1 °F 61.0 °F 96% 30.03 in 8.0 mi SW 3.5 mph - 0.00 in   Overcast